Wind_Speed
20 21 21 21 21 20 19 19 19 18 17 16 16 15 14 13 12 12 12 11 10 10 9 9 9 9 8 7 7 6 7 7 6 6 6 5 4 4 3 3 3 3
20 19 20 21 21 20 19 19 18 18 18 17 16 16 15 14 13 13 13 12 11 11 10 9 9 9 9 8 8 8 8 8 8 7 7 6 5 5 4 4 4 4
20 19 19 20 20 20 19 18 17 17 17 18 17 16 16 14 14 14 13 12 12 11 10 10 10 10 10 10 10 10 10 10 9 9 8 8 7 6 5 5 5 6
21 19 18 18 18 18 18 17 17 17 17 18 18 16 16 15 15 14 13 13 12 12 11 11 10 10 11 11 11 11 11 11 10 9 9 8 7 6 6 6 6 7
22 21 19 18 17 17 17 17 18 17 17 17 16 15 15 15 14 14 14 14 13 13 12 12 11 11 11 10 10 10 11 11 10 8 8 8 7 7 7 7 7 7
23 22 21 20 18 17 17 18 18 18 18 17 16 15 15 14 14 14 14 14 14 14 13 12 12 11 11 11 10 11 10 10 10 9 9 9 8 7 7 7 7 7
24 23 22 21 20 18 18 18 18 18 18 17 16 15 15 14 14 14 14 14 14 14 13 13 12 12 12 12 12 11 11 10 10 10 10 10 9 8 7 7 7 7
24 23 22 22 21 20 19 18 17 18 17 17 16 15 15 14 14 13 14 14 14 14 14 13 13 13 12 12 12 12 12 11 11 11 11 11 10 10 9 7 8 8
25 23 22 22 21 21 20 19 18 17 16 16 16 15 14 14 13 14 14 15 15 15 15 14 14 13 13 13 13 13 13 12 12 11 11 11 11 11 10 9 9 9
25 24 23 22 22 22 21 20 19 18 16 16 16 15 15 15 14 15 15 15 15 15 15 15 15 14 14 14 14 14 14 13 12 12 11 11 11 11 11 10 11 11
26 25 24 23 23 22 21 21 20 19 17 17 17 16 16 16 16 16 16 16 16 15 15 16 15 15 15 15 15 15 15 14 14 13 12 12 12 12 12 12 12 12
26 26 25 24 23 21 20 20 21 20 19 18 18 18 17 17 17 17 18 17 17 16 16 16 16 16 17 17 16 16 16 16 15 15 14 13 13 13 13 13 13 13
27 27 25 24 23 21 19 19 20 20 20 20 20 19 19 19 19 19 19 19 19 18 18 18 18 18 19 19 18 18 18 18 17 16 15 15 14 14 13 13 13 13
28 26 25 23 22 21 19 19 19 19 20 20 20 20 20 20 20 20 20 20 21 20 20 19 19 20 20 20 20 20 20 20 19 18 17 16 16 15 14 14 14 14
28 26 24 22 22 21 20 19 19 20 19 19 19 19 19 18 18 18 19 20 20 20 19 19 20 20 21 21 22 22 22 21 20 19 18 18 17 17 16 16 16 15
27 25 23 22 22 21 20 20 20 19 20 20 20 20 19 17 16 16 17 18 18 19 19 19 20 20 20 21 22 23 23 22 21 21 20 19 19 19 19 19 18 17
26 25 23 23 23 22 21 21 20 20 20 20 21 20 19 16 15 15 15 14 15 15 16 17 18 19 20 21 22 22 23 22 22 22 21 21 20 21 21 21 20 19
23 22 21 20 20 20 20 21 21 21 21 21 22 21 19 17 15 14 13 13 13 13 13 13 14 15 16 18 20 20 21 21 22 22 23 22 22 21 21 22 21 20
19 18 17 17 17 16 17 18 19 20 19 18 17 15 13 11 10 9 10 11 11 11 12 12 12 13 13 13 16 18 19 20 21 21 22 22 22 22 22 22 22 22
16 15 14 14 13 13 14 14 16 15 13 10 8 7 7 8 10 12 11 11 10 10 10 10 10 11 12 12 13 16 18 19 20 20 21 21 22 22 22 22 22 22
12 12 12 12 11 11 11 10 8 5 4 5 6 7 10 14 16 15 9 6 6 6 8 10 11 11 12 13 14 15 16 17 18 19 19 20 21 20 20 21 20 20
8 7 7 7 8 8 8 7 6 6 6 3 6 5 4 7 9 8 7 7 9 9 9 11 13 13 13 14 14 15 15 15 16 17 17 18 20 20 20 21 22 21
8 6 4 2 3 5 6 5 4 4 3 5 8 7 6 9 10 9 10 12 14 15 14 14 14 14 14 14 14 14 14 14 15 15 16 17 19 20 20 21 23 24
6 5 4 3 3 3 1 1 1 2 3 2 3 5 8 12 13 11 8 7 8 10 12 12 13 14 14 15 15 16 16 17 17 19 20 21 22 23 23 24 24 24
9 8 7 4 2 1 3 5 4 2 3 4 2 1 3 7 9 7 5 5 5 6 7 8 10 11 13 14 15 16 18 19 20 22 24 26 27 27 28 28 29 27
10 10 9 8 5 4 5 5 5 4 4 4 2 1 3 4 4 3 3 2 1 3 4 5 6 8 9 10 10 11 12 13 14 16 20 23 25 25 25 26 28 29
Wind_Direction
230 232 234 235 235 235 234 233 233 237 241 241 240 240 239 242 245 246 250 254 254 250 245 243 244 251 259 263 266 267 270 271 268 269 274 271 274 282 282 288 309 324
231 234 235 235 233 233 233 234 237 241 244 245 245 245 245 246 249 252 255 257 256 251 246 246 248 252 257 260 262 264 268 268 263 263 269 271 276 286 286 285 297 309
232 234 235 234 233 233 233 235 240 245 246 247 249 249 248 249 252 255 257 256 254 249 246 250 253 254 256 261 263 265 264 263 261 260 266 271 273 277 284 292 301 305
230 233 234 235 235 237 237 240 245 247 246 247 250 250 250 252 254 254 256 256 252 249 250 253 255 256 258 261 262 265 264 261 261 261 262 266 264 265 275 285 295 298
229 231 232 233 236 240 242 245 248 249 247 246 248 248 249 253 255 254 256 256 253 252 254 255 257 259 259 259 260 263 263 259 260 263 265 266 262 263 270 276 284 289
228 230 231 232 236 239 243 246 248 250 248 247 247 247 250 253 253 253 254 254 253 254 256 256 255 257 256 256 261 263 262 259 259 261 264 269 269 268 274 278 283 285
228 230 231 232 234 237 241 244 247 248 248 248 250 250 251 252 252 252 253 253 253 254 257 255 253 255 253 253 259 263 261 259 259 259 263 269 271 268 271 280 286 286
228 230 231 231 233 235 237 239 242 244 246 248 249 248 249 252 252 253 254 254 255 256 256 255 253 254 252 251 257 261 260 260 261 262 266 270 269 265 266 274 283 285
227 229 230 231 233 235 235 236 237 240 243 246 246 245 249 254 255 256 257 258 261 260 257 256 255 256 255 254 257 260 261 262 262 264 267 269 269 268 268 272 279 284
225 226 227 229 232 235 236 238 238 240 242 242 242 245 250 255 257 258 260 261 264 264 261 259 259 259 259 258 257 258 260 262 262 264 266 269 271 271 271 273 278 284
224 225 226 227 230 235 240 242 242 242 243 241 241 245 251 255 257 259 260 261 263 265 264 264 263 263 263 260 258 258 261 264 266 266 266 267 269 271 274 277 280 283
223 225 227 228 230 234 240 245 245 245 244 242 241 245 249 251 255 258 260 262 264 267 268 269 268 266 264 262 261 263 265 268 269 268 268 267 267 270 274 278 281 283
222 225 229 230 232 235 240 246 248 247 246 244 244 247 249 252 257 260 263 265 267 269 272 274 272 268 265 263 263 264 267 270 271 269 267 266 267 269 274 278 282 284
222 226 229 232 234 237 241 246 247 247 247 247 248 249 252 257 262 265 267 269 270 272 274 275 274 270 267 266 266 267 268 269 269 267 265 264 266 269 274 279 282 283
223 226 229 232 234 236 239 243 245 246 247 249 249 251 257 265 268 269 270 271 272 272 273 272 273 272 272 272 271 271 271 271 269 265 262 262 264 267 270 274 277 281
221 225 229 231 233 235 236 238 240 243 246 248 250 255 263 268 270 269 271 273 273 272 272 270 271 273 276 277 275 273 272 272 270 266 261 261 264 266 269 271 273 275
219 222 227 230 234 237 238 239 242 245 246 247 250 256 263 264 264 265 266 269 272 272 273 274 274 275 275 275 275 274 271 269 268 265 261 262 265 267 270 273 273 273
215 219 224 230 233 237 242 245 247 247 246 247 250 253 254 249 247 252 255 260 265 268 272 277 280 281 281 279 279 277 272 267 264 262 261 263 265 268 271 273 273 272
211 216 221 226 230 234 240 244 246 246 244 244 245 246 245 241 241 247 252 255 260 266 272 276 281 284 286 287 284 279 272 266 262 260 262 264 267 269 271 273 275 274
206 210 213 219 221 223 228 233 236 236 229 219 217 221 226 233 239 242 246 253 260 269 276 278 279 279 278 278 277 273 268 263 261 262 264 267 270 272 273 274 275 275
201 208 212 215 215 213 218 222 218 200 138 152 201 231 236 237 240 240 242 257 271 284 296 295 290 284 280 277 273 269 265 261 261 263 265 269 271 272 275 277 277 279
192 205 210 211 216 215 212 198 169 121 87 136 210 235 265 265 259 252 246 250 252 256 274 288 290 284 279 277 275 273 270 267 265 266 268 271 273 274 280 285 285 285
180 186 176 187 235 231 219 206 186 186 219 234 228 236 264 277 278 275 268 265 263 261 262 269 276 275 272 272 273 274 276 276 275 275 274 275 276 278 282 286 286 283
140 154 168 212 258 266 247 28 1 278 284 310 275 259 265 270 276 283 283 270 259 256 257 259 265 270 272 275 276 280 285 288 289 288 286 283 281 281 282 284 283 279
102 104 117 141 163 59 65 71 64 46 43 51 51 274 254 258 265 266 249 229 229 241 254 263 270 277 282 285 286 287 290 291 291 290 288 285 284 285 285 284 280 275
97 104 112 117 114 94 76 75 72 65 68 77 94 177 211 219 227 222 198 181 240 270 271 279 289 299 305 308 308 306 305 305 303 296 291 289 289 288 286 286 284 277
Height
851 852 853 854 855 856 857 858 859 860 860 861 862 863 863 865 866 866 867 868 868 868 868 869 869 869 869 870 870 870 870 870 870 870 870 870 870 870 870 869 869 869
849 850 852 853 854 855 856 857 858 859 860 860 861 862 863 864 865 865 866 867 867 867 868 868 868 868 869 869 869 869 869 869 869 869 869 870 870 870 870 869 869 868
848 849 850 851 853 854 855 856 857 858 859 860 860 861 862 863 864 864 865 865 866 866 867 867 867 867 868 868 868 868 868 868 868 868 869 869 869 869 869 869 868 868
846 847 849 850 852 853 854 855 856 857 858 859 859 860 861 862 862 863 864 864 864 865 865 866 866 866 867 867 867 867 867 867 867 868 868 868 868 868 868 868 867 867
844 846 847 849 850 852 853 854 855 856 857 857 858 859 860 861 861 862 862 863 863 864 864 864 865 865 865 866 866 866 866 866 866 867 867 867 867 867 867 867 866 866
842 844 845 847 849 850 852 853 854 855 856 857 857 858 859 859 860 860 861 861 862 862 862 863 863 863 864 864 864 864 865 865 865 865 865 865 866 866 866 866 865 865
841 842 844 846 847 849 850 851 852 853 854 855 856 857 857 858 858 859 859 860 860 861 861 861 861 862 862 862 863 863 863 864 864 864 864 864 864 865 865 865 864 864
839 841 843 844 845 847 848 849 850 851 852 854 854 855 856 856 857 857 858 859 859 859 860 860 860 860 861 861 861 862 862 862 863 863 863 863 863 863 863 863 863 862
838 840 841 843 844 845 846 847 848 849 850 851 852 854 854 855 856 856 857 857 858 858 858 859 859 859 860 860 860 860 860 861 861 861 862 862 862 862 862 862 861 861
836 838 839 841 842 843 844 845 846 847 848 849 851 852 853 854 854 855 856 856 856 857 857 858 858 858 859 859 859 859 859 859 860 860 860 860 860 860 860 860 860 860
834 836 837 838 840 842 843 844 845 846 847 848 849 850 851 852 853 854 854 855 855 856 856 857 857 857 858 858 858 858 858 858 859 859 859 859 859 859 859 859 858 858
832 834 835 836 838 840 842 843 844 845 846 847 848 848 850 851 852 852 853 854 854 854 855 855 856 856 856 857 857 857 857 858 858 858 858 857 857 857 857 857 857 857
830 832 833 835 837 838 840 841 843 844 845 845 846 847 848 849 850 851 852 852 853 853 853 854 854 855 855 855 856 856 856 856 856 857 857 856 856 856 856 856 855 855
828 830 831 833 835 836 838 839 841 842 843 844 845 846 847 848 848 849 850 851 851 851 852 852 852 853 853 853 854 854 855 855 855 855 855 855 855 855 855 854 854 854
826 828 830 831 833 834 836 837 839 841 842 843 844 845 845 846 847 848 848 849 849 849 850 850 850 850 851 851 852 852 853 853 853 853 853 853 853 853 853 853 852 852
824 826 828 830 831 832 834 835 837 838 840 842 843 843 844 845 846 846 847 847 847 848 848 848 848 849 849 849 849 850 850 851 851 851 851 851 851 851 851 851 851 851
823 825 826 828 829 831 832 834 835 836 838 840 841 842 843 844 844 845 845 846 846 846 847 847 847 847 847 847 847 847 848 848 848 849 849 849 849 849 849 849 849 849
821 823 825 827 828 830 831 833 834 835 836 838 839 840 841 842 843 844 844 845 845 845 846 845 845 845 845 845 845 845 846 846 846 847 847 847 847 847 847 846 846 846
820 822 823 825 826 828 829 831 832 833 834 836 837 839 840 841 842 842 843 843 844 844 845 844 844 844 844 844 843 843 844 844 844 844 845 845 844 844 844 844 844 843
820 821 822 824 825 826 828 829 831 832 833 833 835 837 839 840 840 841 842 842 843 843 844 843 843 843 842 842 842 841 842 842 842 842 842 842 842 842 842 841 841 841
819 821 822 824 825 826 827 829 830 832 833 834 834 836 837 837 838 839 841 842 842 843 844 843 843 842 842 841 840 840 840 840 840 840 840 840 840 840 840 839 839 838
819 821 823 824 825 825 826 828 829 831 833 835 836 837 838 838 839 840 841 841 841 841 842 842 842 841 841 840 840 839 839 839 838 838 838 838 837 837 837 837 836 836
818 821 823 825 826 826 826 827 828 829 832 834 834 835 837 838 838 840 840 840 839 839 840 840 840 839 839 839 838 838 837 837 837 836 836 836 835 834 834 834 833 833
818 821 823 824 825 826 826 828 828 829 830 832 833 834 834 835 836 837 838 838 838 838 838 838 838 838 838 838 837 837 836 836 836 835 835 834 833 832 832 831 831 831
820 821 823 824 824 825 826 828 829 829 829 830 832 832 833 833 833 835 836 837 837 837 836 836 837 837 837 836 836 836 835 835 835 834 833 832 831 830 830 829 829 829
820 822 824 825 825 825 826 827 827 828 829 829 830 831 831 832 833 834 834 835 835 836 836 836 836 836 836 836 835 834 834 833 833 833 832 830 829 828 828 827 826 826